CW7395 Weather Reports


time (UTC)temp
C
wind
direction
speed
KPH
gust
KPH
rain 1hr
cm
rain 24hr
cm
rain mn
cm
humidity
%
barometer
mb
20260505172013 14 0 0.0 0.0 0.00 0.00 0.00 75 1016.5
20260505171529 14 0 0.0 3.2 0.00 0.00 0.00 75 1016.4
20260505171014 14 0 0.0 3.2 0.00 0.00 0.00 77 1016.4
20260505170512 14 0 0.0 3.2 0.00 0.00 0.00 76 1016.3
20260505170029 13 0 0.0 4.8 0.00 0.00 0.00 78 1016.4
20260505165515 13 0 0.0 4.8 0.00 0.00 0.00 76 1016.3
20260505165014 13 55 0.0 4.8 0.00 0.00 0.00 76 1016.4
20260505164530 13 0 0.0 4.8 0.00 0.00 0.00 77 1016.3
20260505164014 13 0 0.0 4.8 0.00 0.00 0.00 80 1016.3
20260505163514 13 0 0.0 0.0 0.00 0.00 0.00 80 1016.2
20260505163032 13 0 0.0 0.0 0.00 0.00 0.00 80 1016.2
20260505162513 13 0 0.0 0.0 0.00 0.00 0.00 80 1016.2
20260505162013 12 0 0.0 0.0 0.00 0.00 0.00 81 1016.3
20260505161532 12 0 0.0 0.0 0.00 0.00 0.00 81 1016.3
20260505161015 12 0 0.0 0.0 0.00 0.00 0.00 81 1016.3
20260505160516 12 0 0.0 0.0 0.00 0.00 0.00 82 1016.2
20260505153035 11 0 0.0 0.0 0.00 0.00 0.00 87 1016.3
20260505152512 11 0 0.0 0.0 0.00 0.00 0.00 87 1016.3
20260505152016 11 0 0.0 0.0 0.00 0.00 0.00 87 1016.2
20260505151531 11 0 0.0 0.0 0.00 0.00 0.00 86 1016.1
20260505151013 11 0 0.0 0.0 0.00 0.00 0.00 87 1016.0
20260505150516 11 0 0.0 0.0 0.00 0.00 0.00 87 1016.0
20260505140513 10 0 0.0 0.0 0.00 0.00 0.00 88 1015.6
20260505125018 10 0 0.0 0.0 0.00 0.00 0.00 88 1015.3
20260505124537 10 0 0.0 0.0 0.00 0.00 0.00 88 1015.4
20260505124015 10 0 0.0 0.0 0.00 0.00 0.00 88 1015.3
20260505123519 10 0 0.0 0.0 0.00 0.00 0.00 88 1015.3
20260505123036 10 0 0.0 0.0 0.00 0.00 0.00 88 1015.3
20260505122514 10 0 0.0 0.0 0.00 0.00 0.00 88 1015.4
20260505122015 10 0 0.0 0.0 0.00 0.00 0.00 88 1015.4
20260505121537 10 0 0.0 0.0 0.00 0.00 0.00 88 1015.4
20260505121013 10 0 0.0 0.0 0.00 0.00 0.00 88 1015.4
20260505120513 10 0 0.0 0.0 0.00 0.00 0.00 88 1015.4
20260505120043 10 0 0.0 0.0 0.00 0.00 0.00 88 1015.5
20260505115516 10 0 0.0 0.0 0.00 0.00 0.00 88 1015.6
20260505115013 10 0 0.0 0.0 0.00 0.00 0.00 88 1015.5
20260505114532 10 0 0.0 0.0 0.00 0.00 0.00 88 1015.5
20260505114013 10 0 0.0 0.0 0.00 0.00 0.00 87 1015.4
20260505113513 10 0 0.0 0.0 0.00 0.00 0.00 87 1015.4
20260505113031 10 0 0.0 0.0 0.00 0.00 0.00 87 1015.4
20260505112514 10 0 0.0 0.0 0.00 0.00 0.00 87 1015.5
20260505112014 10 0 0.0 0.0 0.00 0.00 0.00 86 1015.4
20260505111530 10 0 0.0 0.0 0.00 0.00 0.00 87 1015.3
20260505111013 10 0 0.0 0.0 0.00 0.00 0.00 86 1015.3
20260505110514 10 0 0.0 0.0 0.00 0.00 0.00 87 1015.3
20260505102014 10 0 0.0 0.0 0.00 0.00 0.00 87 1015.3
20260505101543 10 0 0.0 0.0 0.00 0.00 0.00 87 1015.5
20260505101017 10 0 0.0 0.0 0.00 0.00 0.00 87 1015.4
20260505100514 10 0 0.0 0.0 0.00 0.00 0.00 87 1015.4
20260505100030 10 0 0.0 0.0 0.00 0.00 0.00 87 1015.5
20260505095514 10 0 0.0 0.0 0.00 0.00 0.00 87 1015.4
20260505095012 10 0 0.0 0.0 0.00 0.00 0.00 86 1015.6
20260505094537 10 0 0.0 0.0 0.00 0.00 0.00 86 1015.6
20260505094014 10 0 0.0 0.0 0.00 0.00 0.00 86 1015.5
20260505093515 10 0 0.0 0.0 0.00 0.00 0.00 86 1015.5
20260505093031 10 0 0.0 0.0 0.00 0.00 0.00 86 1015.6
20260505092515 10 0 0.0 0.0 0.00 0.00 0.00 86 1015.6
20260505092014 10 0 0.0 0.0 0.00 0.00 0.00 86 1015.6
20260505091535 10 0 0.0 0.0 0.00 0.00 0.00 86 1015.8
20260505091013 10 0 0.0 0.0 0.00 0.00 0.00 86 1016.0
20260505090514 10 0 0.0 0.0 0.00 0.00 0.00 86 1015.9
20260505090031 10 0 0.0 0.0 0.00 0.00 0.00 86 1015.8
20260505085514 10 0 0.0 0.0 0.00 0.00 0.00 86 1016.0
20260505085014 10 0 0.0 0.0 0.00 0.00 0.00 86 1016.0
20260505084530 10 0 0.0 0.0 0.00 0.00 0.00 86 1016.0
20260505084013 10 0 0.0 0.0 0.00 0.00 0.00 86 1016.0
20260505083512 10 0 0.0 0.0 0.00 0.00 0.00 87 1015.9
20260505083032 10 0 0.0 0.0 0.00 0.00 0.00 87 1016.0
20260505082518 10 0 0.0 0.0 0.00 0.00 0.00 87 1016.1
20260505082017 10 0 0.0 0.0 0.00 0.00 0.00 87 1016.1
20260505081532 10 0 0.0 0.0 0.00 0.00 0.00 87 1016.1
20260505081019 10 0 0.0 0.0 0.00 0.00 0.00 87 1016.3
20260505080514 10 0 0.0 0.0 0.00 0.00 0.00 87 1016.2
20260505080032 10 0 0.0 0.0 0.00 0.00 0.00 86 1016.2
20260505075514 10 0 0.0 0.0 0.00 0.00 0.00 86 1016.2
20260505075019 10 0 0.0 0.0 0.00 0.00 0.00 86 1016.3
20260505074531 10 0 0.0 0.0 0.00 0.00 0.00 86 1016.2
20260505074014 10 0 0.0 0.0 0.00 0.00 0.00 86 1016.1
20260505073518 10 0 0.0 0.0 0.00 0.00 0.00 86 1016.2
20260505073030 10 0 0.0 0.0 0.00 0.00 0.00 86 1016.1
20260505072514 10 0 0.0 0.0 0.00 0.00 0.00 86 1016.0
20260505072013 10 0 0.0 0.0 0.00 0.00 0.00 86 1016.0
20260505071534 10 0 0.0 0.0 0.00 0.00 0.00 86 1015.9
20260505071013 10 0 0.0 0.0 0.00 0.00 0.00 85 1015.9
20260505070519 10 0 0.0 0.0 0.00 0.00 0.00 85 1015.9
20260505070029 10 0 0.0 0.0 0.00 0.00 0.00 85 1016.0
20260505065512 10 0 0.0 0.0 0.00 0.00 0.00 85 1016.1
20260505065013 10 0 0.0 0.0 0.00 0.00 0.00 84 1016.0
20260505064530 10 0 0.0 0.0 0.00 0.00 0.00 84 1015.9
20260505064013 10 0 0.0 0.0 0.00 0.00 0.00 84 1015.9
20260505063513 11 0 0.0 0.0 0.00 0.00 0.00 83 1015.9
20260505063031 11 0 0.0 0.0 0.00 0.00 0.00 83 1015.7
20260505062514 11 0 0.0 0.0 0.00 0.00 0.00 83 1015.7
20260505062012 11 0 0.0 0.0 0.00 0.00 0.00 82 1015.7
20260505061534 11 0 0.0 0.0 0.00 0.00 0.00 82 1015.6
20260505061018 11 0 0.0 0.0 0.00 0.00 0.00 82 1015.7
20260505060513 11 0 0.0 0.0 0.00 0.00 0.00 82 1015.7
20260505060044 11 0 0.0 0.0 0.00 0.00 0.00 81 1015.8
20260505055518 11 0 0.0 0.0 0.00 0.00 0.00 81 1015.8
20260505055016 11 0 0.0 0.0 0.00 0.00 0.00 81 1015.8
20260505054534 11 0 0.0 0.0 0.00 0.00 0.00 81 1015.8
20260505054013 11 0 0.0 0.0 0.00 0.00 0.00 81 1016.0
20260505053517 11 0 0.0 0.0 0.00 0.00 0.00 82 1016.1
20260505053032 11 0 0.0 0.0 0.00 0.00 0.00 81 1016.2
20260505052513 11 0 0.0 0.0 0.00 0.00 0.00 81 1016.2
20260505052013 11 0 0.0 0.0 0.00 0.00 0.00 81 1016.2
20260505051529 11 0 0.0 0.0 0.00 0.00 0.00 81 1016.1
20260505051012 11 0 0.0 0.0 0.00 0.00 0.00 81 1016.2
20260505050513 11 0 0.0 0.0 0.00 0.00 0.00 81 1016.2
20260505041531 12 0 0.0 0.0 0.00 0.00 0.00 79 1015.8
20260505041015 12 0 0.0 0.0 0.00 0.00 0.00 79 1015.9
20260505040513 12 0 0.0 0.0 0.00 0.00 0.00 79 1015.7
20260505040030 12 0 0.0 0.0 0.00 0.00 0.00 78 1015.6
20260505035514 12 0 0.0 0.0 0.00 0.00 0.00 77 1015.6
20260505035015 12 0 0.0 0.0 0.00 0.00 0.00 77 1015.4
20260505034532 12 0 0.0 0.0 0.00 0.00 0.00 77 1015.3
20260505034013 12 0 0.0 0.0 0.00 0.00 0.00 76 1015.3
20260505033513 13 0 0.0 0.0 0.00 0.00 0.00 76 1015.3
20260505033032 13 0 0.0 0.0 0.00 0.00 0.00 76 1015.2
20260505032515 13 0 0.0 0.0 0.00 0.00 0.00 75 1015.1
20260505032014 13 0 0.0 0.0 0.00 0.00 0.00 75 1015.2
20260505031532 13 0 0.0 0.0 0.00 0.00 0.00 75 1015.3
20260505031012 13 0 0.0 0.0 0.00 0.00 0.00 75 1015.3
20260505030515 13 0 0.0 0.0 0.00 0.00 0.00 74 1015.3
20260505030032 13 0 0.0 0.0 0.00 0.00 0.00 73 1015.3
20260505025518 13 0 0.0 0.0 0.00 0.00 0.00 73 1015.2
20260505025012 14 0 0.0 0.0 0.00 0.00 0.00 72 1015.1
20260505024531 14 0 0.0 0.0 0.00 0.00 0.00 72 1015.0
20260505024014 14 0 0.0 0.0 0.00 0.00 0.00 72 1015.2
20260505023512 14 0 0.0 0.0 0.00 0.00 0.00 71 1015.2
20260505023029 14 0 0.0 0.0 0.00 0.00 0.00 70 1015.1
20260505022515 15 0 0.0 0.0 0.00 0.00 0.00 70 1015.1
20260505022017 15 0 0.0 0.0 0.00 0.00 0.00 66 1015.1
20260505021532 15 0 0.0 1.6 0.00 0.00 0.00 67 1014.9
20260505021013 15 0 0.0 1.6 0.00 0.00 0.00 66 1015.0
20260505020513 15 281 0.0 0.0 0.00 0.00 0.00 65 1015.0
20260505020032 15 0 0.0 0.0 0.00 0.00 0.00 65 1014.9
20260505015513 15 0 0.0 8.0 0.00 0.00 0.00 66 1014.9
20260505015013 15 0 0.0 8.0 0.00 0.00 0.00 64 1014.9
20260505014530 16 0 0.0 8.0 0.00 0.00 0.00 64 1014.9
20260505014019 16 0 0.0 8.0 0.00 0.00 0.00 65 1015.0
20260505013514 16 0 0.0 11.3 0.00 0.00 0.00 64 1015.0
20260505013041 16 0 0.0 11.3 0.00 0.00 0.00 63 1015.0
20260505012512 16 0 0.0 11.3 0.00 0.00 0.00 62 1015.0
20260505012013 16 0 0.0 4.8 0.00 0.00 0.00 63 1015.0
20260505011530 16 0 0.0 6.4 0.00 0.00 0.00 63 1015.1
20260505011014 16 0 0.0 6.4 0.00 0.00 0.00 63 1015.1
20260505010517 16 0 0.0 8.0 0.00 0.00 0.00 63 1015.1
20260505010033 16 0 0.0 14.5 0.00 0.00 0.00 64 1015.2
20260505005514 16 0 1.6 14.5 0.00 0.00 0.00 63 1015.2
20260505005014 16 0 4.8 14.5 0.00 0.00 0.00 61 1015.2
20260505004532 16 0 1.6 12.9 0.00 0.00 0.00 62 1015.2
20260505004014 16 0 0.0 6.4 0.00 0.00 0.00 62 1015.2
20260505003516 16 0 0.0 6.4 0.00 0.00 0.00 64 1015.2
20260505003033 16 0 0.0 8.0 0.00 0.00 0.00 63 1015.2
20260505002515 16 0 0.0 8.0 0.00 0.00 0.00 62 1015.2
20260505002015 16 41 0.0 6.4 0.00 0.00 0.00 64 1015.1
20260505001530 16 0 0.0 9.7 0.00 0.00 0.00 65 1015.2
20260505001013 16 0 1.6 9.7 0.00 0.00 0.00 65 1015.2
20260505000514 16 36 0.0 4.8 0.00 0.00 0.00 66 1015.1
20260505000040 16 0 0.0 4.8 0.00 0.00 0.00 67 1015.0
20260504235514 16 0 0.0 4.8 0.00 0.00 0.00 68 1015.1
20260504235012 16 0 0.0 6.4 0.00 0.00 0.00 67 1015.1
20260504234535 16 0 0.0 8.0 0.00 0.00 0.00 68 1015.2
20260504234014 16 0 0.0 8.0 0.00 0.00 0.00 67 1015.1
20260504233514 16 0 0.0 8.0 0.00 0.00 0.00 66 1015.1
20260504233036 16 0 0.0 8.0 0.00 0.00 0.00 66 1015.1
20260504232515 16 53 0.0 8.0 0.00 0.00 0.00 65 1015.1
20260504232015 16 0 0.0 6.4 0.00 0.00 0.00 64 1015.1
20260504231532 16 0 0.0 11.3 0.00 0.00 0.00 65 1015.3
20260504231012 16 0 0.0 11.3 0.00 0.00 0.00 64 1015.2
20260504230513 16 0 0.0 11.3 0.00 0.00 0.00 63 1015.3
20260504230030 16 0 0.0 14.5 0.00 0.00 0.00 63 1015.3
20260504225514 17 0 1.6 14.5 0.00 0.00 0.00 61 1015.2
20260504225017 17 306 1.6 12.9 0.00 0.00 0.00 60 1015.2
20260504224530 17 0 0.0 8.0 0.00 0.00 0.00 60 1015.1
20260504224012 17 0 0.0 4.8 0.00 0.00 0.00 63 1015.2
20260504223514 17 117 0.0 8.0 0.00 0.00 0.00 60 1015.2
20260504223029 17 0 1.6 8.0 0.00 0.00 0.00 62 1015.3
20260504222512 17 0 0.0 6.4 0.00 0.00 0.00 60 1015.4
20260504222016 17 0 0.0 4.8 0.00 0.00 0.00 60 1015.4
20260504221532 17 0 0.0 4.8 0.00 0.00 0.00 59 1015.6
20260504221014 17 0 0.0 1.6 0.00 0.00 0.00 59 1015.8
20260504220514 17 0 0.0 3.2 0.00 0.00 0.00 58 1015.7
20260504220040 18 0 0.0 9.7 0.00 0.00 0.00 59 1015.7
20260504215514 18 0 0.0 9.7 0.00 0.00 0.00 58 1015.9
20260504215014 18 0 0.0 9.7 0.00 0.00 0.00 58 1015.8
20260504214536 18 0 0.0 9.7 0.00 0.00 0.00 61 1015.8
20260504214017 17 0 0.0 9.7 0.00 0.00 0.00 63 1015.8
20260504213513 17 0 0.0 4.8 0.00 0.00 0.00 65 1015.8
20260504213035 17 0 0.0 4.8 0.00 0.00 0.00 63 1015.9
20260504212514 16 0 0.0 4.8 0.00 0.00 0.00 65 1015.9
20260504212017 16 0 0.0 4.8 0.00 0.00 0.00 65 1016.0
20260504211535 16 0 0.0 6.4 0.00 0.00 0.00 65 1016.1
20260504211013 16 0 0.0 6.4 0.00 0.00 0.00 66 1016.1
20260504210514 16 0 0.0 1.6 0.00 0.00 0.00 67 1016.1
20260504210033 16 0 0.0 1.6 0.00 0.00 0.00 66 1016.1
20260504205514 16 0 0.0 0.0 0.00 0.00 0.00 65 1016.0
20260504205013 15 0 0.0 0.0 0.00 0.00 0.00 67 1016.1
20260504204531 15 0 0.0 6.4 0.00 0.00 0.00 67 1016.2
20260504204014 15 0 0.0 6.4 0.00 0.00 0.00 67 1016.0
20260504203518 15 0 0.0 0.0 0.00 0.00 0.00 67 1016.0
20260504203035 15 0 0.0 0.0 0.00 0.00 0.00 67 1016.1
20260504202513 15 0 0.0 6.4 0.00 0.00 0.00 67 1016.1
20260504202015 15 0 0.0 6.4 0.00 0.00 0.00 67 1016.1
20260504201532 15 0 0.0 1.6 0.00 0.00 0.00 67 1016.1
20260504201016 15 0 0.0 1.6 0.00 0.00 0.00 68 1016.2
20260504200512 15 0 0.0 3.2 0.00 0.00 0.00 68 1016.2
20260504200030 15 0 0.0 3.2 0.00 0.00 0.00 69 1016.1
20260504195512 15 72 0.0 3.2 0.00 0.00 0.00 69 1016.2
20260504195012 15 109 0.0 3.2 0.00 0.00 0.00 69 1016.2
20260504194532 15 0 0.0 1.6 0.00 0.00 0.00 70 1016.2
20260504194015 15 0 0.0 4.8 0.00 0.00 0.00 67 1016.2
20260504193511 15 0 0.0 12.9 0.00 0.00 0.00 68 1016.2
20260504193031 15 0 0.0 12.9 0.00 0.00 0.00 68 1016.1
20260504192515 15 0 3.2 12.9 0.00 0.00 0.00 66 1016.1
20260504192014 16 0 0.0 8.0 0.00 0.00 0.00 67 1016.0
20260504191530 16 0 0.0 8.0 0.00 0.00 0.00 65 1016.0
20260504191015 16 0 0.0 1.6 0.00 0.00 0.00 65 1016.0
20260504190513 16 0 0.0 0.0 0.00 0.00 0.00 67 1016.1
20260504190032 16 0 0.0 0.0 0.00 0.00 0.00 66 1016.1
20260504185515 16 0 0.0 0.0 0.00 0.00 0.00 65 1016.2
20260504185017 16 0 0.0 0.0 0.00 0.00 0.00 63 1016.2
20260504184535 16 0 0.0 0.0 0.00 0.00 0.00 64 1016.3
20260504184012 16 0 0.0 0.0 0.00 0.00 0.00 63 1016.3
20260504183516 16 0 0.0 1.6 0.00 0.00 0.00 64 1016.2
20260504183030 16 0 0.0 12.9 0.00 0.00 0.00 64 1016.2
20260504182515 16 0 0.0 14.5 0.00 0.00 0.00 65 1016.2
20260504182011 16 0 0.0 14.5 0.00 0.00 0.00 64 1016.1
20260504181536 16 0 0.0 6.4 0.00 0.00 0.00 65 1016.2
20260504181015 16 0 0.0 6.4 0.00 0.00 0.00 64 1016.2
20260504180513 16 0 0.0 3.2 0.00 0.00 0.00 65 1016.2
20260504180032 16 0 0.0 0.0 0.00 0.00 0.00 67 1016.1
20260504175512 16 0 0.0 0.0 0.00 0.00 0.00 67 1015.9
20260504175015 16 0 0.0 4.8 0.00 0.00 0.00 65 1015.9
20260504174530 16 0 0.0 4.8 0.00 0.00 0.00 67 1015.9
20260504174015 16 0 0.0 0.0 0.00 0.00 0.00 66 1015.7
20260504173515 16 0 0.0 0.0 0.00 0.00 0.00 66 1015.8
20260504173033 16 0 0.0 1.6 0.00 0.00 0.00 65 1015.8
20260504172514 16 0 0.0 1.6 0.00 0.00 0.00 64 1015.7